Starlink 11083

operational
NORAD ID: 59424 Int'l Des: 2024-065 Owner: SPXS Country: US Constellation: starlink
LEOCIRCULAR

关于 Starlink 11083

正在加载描述...

实时位置

正在加载3D地球...

即将过境

高度历史

Altitude vs Time

uPlot chart will show altitude changes over time

两行轨道根数

1 59424U 24065D 26036.86541432 -.00006349 00000-0 -47653-4 0 9994
2 59424 53.1585 250.8433 0001165 68.5547 291.5595 15.69676142106477
Epoch: Feb 5, 2026 • Age: 11 hours

当前状态

高度 359.7 km
速度 7.70 km/s
星下点 7.44°N, 5.18°E
发射日期 Apr 7, 2024
运行时间 1.8 years
类型 internet

技术详情

分类 Payload
质量 960.00 kg
干质量 910.00 kg
总质量 960.00 kg
长度 0.30 m
直径 4.10 m
跨度 29.00 m
形状 Box + pan
制造商 SPXS
平台类型 Starlink V2MD
阶段状态 In Orbit
所有者/国家 SPXS/US

大型星座

Loading constellations...